Regional Weather Roundup
Issued by NWS

Home | Current Version | Previous Version | Graphics & Text | Print | Product List | Glossary On
Versions: 1 2 3 4 5 6 7 8 9 10 11 12 13 14 15 16 17 18 19 20 21 22 23 24 25 26 27 28 29 30 31 32 33 34 35 36 37 38 39 40 41 42 43 44 45 46 47 48 49 50
003
ASUS43 KLOT 140908
RWRIL

ILLINOIS REGIONAL WEATHER ROUNDUP
NATIONAL WEATHER SERVICE CHICAGO/ROMEOVILLE IL
300 AM CST SUN FEB 14 2016

NOTE: "FAIR" INDICATES FEW OR NO CLOUDS BELOW 12,000 FEET WITH NO
SIGNIFICANT WEATHER AND/OR OBSTRUCTIONS TO VISIBILITY.

* THESE STATIONS ARE NOT UNDER NWS QUALITY CONTROL. THEY ALSO MAY NOT
  REPORT WEATHER SUCH AS PRECIPITATION OR FOG.

ILZ001-002-007-009-015-016-024-141000-
NORTHWEST ILLINOIS

CITY           SKY/WX    TMP DP  RH WIND       PRES   REMARKS
MOLINE         CLOUDY    19   1  45 SE12      30.33F WCI   7
STERLING*      CLOUDY    16   1  53 SE9       30.35F WCI   4
SAVANNA*       CLOUDY    15   2  55 SE9       30.36F WCI   4
$$

ILZ003-004-008-010-011-017-018-141000-
NORTH CENTRAL ILLINOIS

CITY           SKY/WX    TMP DP  RH WIND       PRES   REMARKS
ROCKFORD       CLOUDY    13   2  61 SE7       30.40F WCI   3
FREEPORT*      CLOUDY    12   2  63 SE9       30.38F WCI   0
ROCHELLE*      CLOUDY    14   2  60 SE8       30.40F WCI   3
DE KALB*       CLOUDY    13   2  62 SE7       30.39F WCI   3
$$

ILZ005-006-012>014-019>023-141000-
NORTHEAST ILLINOIS

CITY           SKY/WX    TMP DP  RH WIND       PRES   REMARKS
CHICAGO-OHARE  CLOUDY    10   1  67 SE7       30.41F WCI  -1
CHICAGO-MIDWAY MOCLDY    13  -1  54 S10       30.43F WCI   0
AURORA         PTCLDY    15   3  59 SE10      30.41F WCI   2
LANSING*       MOCLDY    11   2  65 S5        30.44F WCI   3
JOLIET*        CLOUDY    15   6  68 SE5       30.44S WCI   7
WAUKEGAN       PTCLDY     2  -1  88 CALM      30.39F
DUPAGE AIRPORT PTCLDY    12   0  58 S7        30.40F WCI   1
KANKAKEE*      CLOUDY    15   5  64 E8        30.44F WCI   3
WHEELING       CLOUDY     8   1  73 CALM      30.43F
MORRIS*        CLOUDY    15   3  58 SE7       30.40F WCI   5
ROMEOVILLE*    PTCLDY    13   3  65 SE7       30.43S WCI   3
NORTHERLY ISL    N/A     13  -1  54 S6          N/A  WCI   4
$$

LMZ740>746-141000-
SOUTHERN LAKE MICHIGAN

STATION/POSITION SKY/WX   TEMP    WIND        PRES    VSBY  WAVE
                          AIR SEA DIR/SP/G                  HT/PER
                          (F)     (DEG/KT/KT) (MB)    (MI)  (FT/S)
HARRISON CRIB              16     170/  9/ 11   N/A
BURNHAM HARBOR             13     190/  6/  7   N/A
CALUMET HARBOR             12     150/  7/  8 1030.0F
BURNS HARBOR               12     140/  6/ 19 1031.5F
MICHIGAN CITY               9     120/  8/ 10   N/A
$$

ILZ025>027-034>036-040-047-049-050-058-095>099-141000-
WEST-CENTRAL ILLINOIS

CITY           SKY/WX    TMP DP  RH WIND       PRES   REMARKS
QUINCY         CLOUDY    18  11  74 SE16      30.27F WCI   3
GALESBURG*     LGT SNOW  16  13  90 SE10      30.33F WCI   3
MACOMB*        CLOUDY    16  14  91 E12       30.35F WCI   3
JACKSONVILLE*  CLOUDY    22  12  65 SE13      30.35F WCI  10
PITTSFIELD*    CLOUDY    20  13  75 E12       30.32F WCI   8
$$

ILZ028>032-037-038-041>044-048-051>054-059>061-141000-
CENTRAL ILLINOIS

CITY           SKY/WX    TMP DP  RH WIND       PRES   REMARKS
PONTIAC        CLOUDY    18   5  56 SE9       30.42F WCI   7
BLOOMINGTON    CLOUDY    17   6  62 SE8       30.39F WCI   7
DECATUR        LGT SNOW  15  11  83 SE8       30.40F VSB 3/4 WCI   4
PEORIA         LGT SNOW  16  10  77 SE7       30.38F WCI   6
LACON*         CLOUDY    18   3  53 SE8       30.39F WCI   8
LINCOLN*       LGT SNOW  17  14  90 SE8       30.39F WCI   6
SPRINGFIELD    LGT SNOW  18  14  84 E13       30.37F FOG     WCI   5
TAYLORVILLE    CLOUDY    19  10  68 E10       30.38F WCI   8
$$

ILZ033-039-045-046-055>057-062-063-141000-
EAST-CENTRAL ILLINOIS

CITY           SKY/WX    TMP DP  RH WIND       PRES   REMARKS
CHAMPAIGN      CLOUDY    17   6  62 SE10      30.40F WCI   5
RANTOUL*       CLOUDY    19   5  54 SE8       30.41S WCI   9
MATTOON        LGT SNOW  15   9  76 E6        30.40S WCI   6
PARIS*         CLOUDY    17   4  56 SE8       30.43F WCI   7
$$

ILZ079-100>102-141000-
SOUTHWEST ILLINOIS

CITY           SKY/WX    TMP DP  RH WIND       PRES   REMARKS
ALTON          CLOUDY    21   9  60 E10       30.36F WCI  10
BELLEVILLE     CLOUDY    23   7  50 E10       30.36F WCI  12
CAHOKIA*       CLOUDY    24   6  46 SE13      30.36F WCI  12
SPARTA*        CLOUDY    22   8  55 E9        30.38S WCI  12
$$

ILZ064>066-069>071-074>076-080>082-084>086-088>090-092>094-141000-
SOUTH-CENTRAL ILLINOIS

CITY           SKY/WX    TMP DP  RH WIND       PRES   REMARKS
CARBONDALE     FLURRIES  23   8  52 E6        30.39S WCI  16
CAIRO*         CLOUDY    26  13  60 E10       30.36S WCI  15
EFFINGHAM*     CLOUDY    20  10  66 E8        30.42F WCI  10
MARION         CLOUDY    25   9  50 E6        30.39S WCI  18
MT. VERNON     CLOUDY    21   5  49 E6        30.40S WCI  14
CENTRALIA*     DRIZZLE   22   9  57 E7        30.39S WCI  14
SALEM*         CLOUDY    22   6  49 SE3       30.39F
METROPOLIS*    CLOUDY    25  11  54 E6        30.38R WCI  18
$$

ILZ067-068-072-073-078-083-087-091-141000-
SOUTHEAST ILLINOIS

CITY           SKY/WX    TMP DP  RH WIND       PRES   REMARKS
LAWRENCEVILLE  FLURRIES  20   8  60 E9        30.42F WCI   9
FLORA*         CLOUDY    22   6  50 E9        30.41F WCI  12
FAIRFIELD*     CLOUDY    22   6  50 E7        30.40F WCI  13
HARRISBURG*    LGT SNOW  23  12  63 E9        30.40F WCI  13
ROBINSON*      CLOUDY    18   6  57 E10       30.44F WCI   7
CARMI*         CLOUDY    22   8  54 E9        30.40F WCI  12
$$

ABBREVIATIONS USED IN REMARKS
   TC - TEMPERATURE IN CELSIUS
  WCI - WIND CHILL INDEX
   HX - HEAT INDEX
  VSB - VISIBILITY
$$





USA.gov is the U.S. government's official web portal to all federal, state and local government web resources and services.